Location: Bas-Clignon
(44.2000°N, 6.6333°E)
Time: 21:23:02
(UTC+00:00)

Cosmos 1844 Rocket - Pass Details

Date: 03 February 2023
Orbit: 826 x 843 km, 71.0° (Epoch: 23 March)

Event Time Altitude Azimuth Distance (km) Brightness Sun altitude
Rises 17:41:24 0° 337° (NNW) 3,375 6.0 -10.4°
Reaches altitude 10° 17:43:55 10° 343° (NNW) 2,437 5.2 -10.8°
Maximum altitude 17:49:22 54° 60° (ENE) 997 2.8 -11.7°
Drops below altitude 10° 17:54:48 10° 138° (SE) 2,423 4.8 -12.7°
Sets 17:57:17 0° 143° (SE) 3,353 5.5 -13.1°
